Lid_Strength_Index
-1 -0 1 4 11 11 14 13 11 11 12 12 11 12 13 13 12 12 9 7 5 5 4 3 1 1 1 0 0 -1 -1 -1 -0 0 -1 0 1 0 0 1 0 1 1 1 0 0 0 1 1
0 0 4 6 13 16 14 12 13 12 11 12 12 11 13 13 10 10 11 7 6 6 4 4 1 1 0 0 0 -0 -0 1 0 0 0 1 1 1 0 0 0 0 1 1 1 1 1 1 1
0 1 7 10 12 15 14 12 12 10 11 10 12 12 13 12 10 10 10 7 6 6 5 3 1 1 0 0 0 1 1 1 1 1 1 1 1 1 1 1 1 1 1 1 1 1 1 1 1
3 4 6 11 13 11 12 11 10 10 10 10 12 14 12 11 10 10 9 8 8 7 7 3 1 0 0 0 0 1 1 1 1 1 1 2 2 2 1 2 1 1 1 1 1 1 1 1 1
4 6 11 12 12 11 11 9 9 10 11 11 11 14 13 11 10 10 9 8 9 9 7 6 2 1 1 1 1 0 1 1 1 1 1 2 2 2 1 2 2 1 1 1 1 2 1 2 2
7 8 12 14 12 10 10 8 10 10 11 11 12 13 13 11 10 11 9 9 9 9 8 7 3 2 2 1 1 1 1 1 1 0 0 0 1 1 1 1 1 1 1 1 1 1 2 2 2
8 10 13 12 12 11 9 10 12 11 11 12 11 14 13 12 11 10 10 10 9 9 9 9 7 5 3 3 2 2 2 2 1 1 1 1 2 1 1 1 0 1 1 1 1 1 1 1 2
6 9 12 12 11 12 10 10 10 11 12 10 11 14 15 12 10 10 10 10 10 9 9 9 9 8 8 7 3 3 2 2 2 2 2 3 3 2 3 2 1 1 1 1 1 1 1 1 3
5 11 13 12 11 11 10 10 10 11 12 12 12 12 12 10 11 11 11 11 10 9 10 9 9 8 8 8 5 4 3 3 3 4 3 6 9 8 7 3 2 2 2 2 2 2 2 3 4
9 11 11 10 10 11 10 10 11 12 14 14 13 13 12 12 13 13 12 12 11 11 10 9 9 9 8 6 8 8 7 8 8 8 9 9 9 7 6 4 3 3 3 3 3 3 4 5 9
10 11 9 9 8 8 10 11 10 13 14 14 14 14 13 13 14 13 12 12 11 11 10 10 9 9 9 8 9 9 9 9 9 9 9 9 9 9 9 9 9 9 5 8 8 9 9 9 9
12 11 9 9 9 9 11 10 12 12 12 11 12 13 14 14 14 14 13 12 12 11 11 10 10 10 10 10 9 10 9 9 9 9 9 10 10 10 10 10 9 9 9 9 10 10 9 9 9
12 12 10 10 10 10 10 12 12 13 13 13 13 13 14 15 15 13 12 12 12 12 11 10 10 10 10 10 10 10 11 10 10 10 10 10 10 10 10 10 10 10 10 10 10 10 9 9 9
12 11 11 11 11 11 11 12 12 13 13 14 13 14 15 15 14 14 13 13 13 12 11 10 10 10 10 10 11 11 11 10 11 11 11 10 10 11 11 10 10 10 10 10 10 10 10 9 9
11 13 13 12 12 12 11 14 13 13 14 14 14 15 15 14 14 14 12 13 13 13 11 11 10 10 10 10 11 11 11 10 11 11 11 10 10 11 11 11 11 10 10 10 10 10 10 10 9
13 14 15 13 12 12 13 16 13 14 14 15 15 16 15 14 14 14 13 12 13 13 12 11 9 10 10 11 11 11 11 11 11 11 11 10 10 10 11 11 11 11 11 11 11 11 11 11 11
14 16 15 14 12 13 14 16 13 15 14 15 16 16 16 15 14 14 13 12 13 13 12 12 11 11 11 11 11 12 11 11 11 11 11 11 10 10 11 11 11 11 12 12 12 12 12 12 12
17 17 16 16 13 14 15 15 14 15 15 15 16 16 16 15 14 14 13 12 12 13 12 12 11 11 11 12 12 12 12 11 11 11 11 10 10 10 11 11 11 11 11 12 12 13 12 12 11
14 16 16 15 13 14 15 15 14 14 15 16 17 17 16 15 13 14 13 12 12 13 13 12 12 12 12 12 13 13 13 12 11 11 10 10 10 10 11 11 11 11 11 12 12 12 12 12 11
14 16 16 15 13 15 16 15 14 14 14 14 15 16 16 15 15 15 13 13 12 13 13 12 11 11 11 12 12 12 12 12 11 11 11 10 10 10 10 11 11 11 11 12 12 12 12 12 11
15 16 17 17 15 15 16 16 15 15 15 14 14 15 15 14 14 15 14 13 13 13 13 12 11 11 11 11 12 12 12 12 11 11 11 10 10 10 10 10 11 11 11 12 12 12 12 13 11
16 14 14 15 16 19 16 19 17 16 16 15 15 16 15 15 14 13 13 13 14 13 13 12 11 11 11 12 12 13 13 13 12 12 11 11 10 10 10 10 10 11 11 12 11 10 11 12 13
15 13 15 15 17 18 18 19 17 17 16 15 15 15 14 14 14 14 13 12 12 12 13 13 12 11 11 12 12 12 13 13 12 12 12 11 11 10 10 10 11 11 11 11 11 10 11 12 12
13 15 14 15 17 20 18 18 17 16 15 16 15 14 14 14 15 13 12 12 12 13 13 13 12 11 12 12 12 12 13 12 12 12 12 12 11 11 10 10 11 11 11 11 10 10 10 10 11
14 17 19 18 19 19 17 18 16 15 14 14 13 15 14 15 15 15 14 14 13 13 13 12 12 12 12 12 12 12 12 12 12 12 12 12 12 11 11 11 11 11 11 10 10 10 10 10 11
16 17 18 20 20 19 17 19 15 14 14 14 13 14 14 15 15 15 14 14 13 12 12 12 12 12 12 12 12 12 12 12 12 12 12 12 12 12 11 11 11 11 11 10 10 10 10 10 10
17 18 16 19 19 20 18 16 13 14 14 15 14 15 15 15 15 15 15 14 14 13 12 12 12 11 11 11 12 12 12 12 12 12 12 12 12 11 11 11 11 11 11 10 11 11 11 10 10
17 16 18 18 21 21 19 18 16 15 14 14 14 15 14 14 15 15 15 14 14 13 12 12 12 11 11 11 11 12 12 13 12 12 13 12 12 12 11 11 11 11 11 11 11 11 11 10 11
18 18 18 18 18 21 22 19 15 14 13 13 14 14 14 14 14 14 14 14 13 13 13 13 12 12 12 11 12 13 13 13 13 13 13 13 12 12 12 11 11 11 11 11 12 12 11 11 10
17 17 17 20 20 20 22 19 13 14 13 13 13 13 14 13 13 14 14 15 14 14 13 13 13 12 12 11 12 12 13 13 14 14 13 13 13 12 12 12 12 12 12 11 12 12 11 10 10